Regional Weather Roundup
Issued by NWS

Home | Current Version | Previous Version | Graphics & Text | Print | Product List | Glossary On
Versions: 1 2 3 4 5 6 7 8 9 10 11 12 13 14 15 16 17 18 19 20 21 22 23 24 25 26 27 28 29 30 31 32 33 34 35 36 37 38 39 40 41 42 43 44 45 46 47 48 49 50
000
ASUS43 KIND 280159
RWRIN

WEATHER ROUNDUP FOR INDIANA
NATIONAL WEATHER SERVICE INDIANAPOLIS IN
900 PM EST MON FEB 27 2017

NOTE: "FAIR" INDICATES FEW OR NO CLOUDS BELOW 12,000 FEET WITH NO
SIGNIFICANT WEATHER AND/OR OBSTRUCTIONS TO VISIBILITY.

* - STATION DOES NOT REPORT WEATHER SUCH AS PRECIPITATION OR FOG.

+ - STATION NOT QUALITY CONTROLLED BY THE NATIONAL WEATHER SERVICE.
    USE DATA WITH CAUTION...ESPECIALLY DEWPOINT AND RELATIVE
    HUMIDITY OBSERVATIONS.

INZ001>003-010>013-019-020-280300-
NORTHWEST INDIANA

CITY           SKY/WX    TMP DP  RH WIND       PRES   REMARKS
GARY /AIRPORT/ PTCLDY    50  32  50 SE8       30.09R
KNOX *+        CLOUDY    45  21  39 SE10      30.12R
MICHIGAN CITY+ CLOUDY    45  34  65 SE5       30.11R
RENSSELAER +   PTCLDY    45  37  76 SE10      30.11R

$$

LMZ046-743>745-280300-
SOUTHERN LAKE MICHIGAN

STATION/POSITION TIME  TEMP    WIND        PRES    WAVE
                       AIR SEA DIR/SP/G            HT
                 (UTC) (F)     (DEG/KT/KT) (MB)    (FT)
BURNS HARBOR     0140   49     140/  9/ 15 1019.3S
MICHIGAN CITY    0130   48     110/  9/ 10   N/A

$$

INZ004-005-014>016-021>024-280300-
NORTH CENTRAL INDIANA

CITY           SKY/WX    TMP DP  RH WIND       PRES   REMARKS
ELKHART        PTCLDY    41  32  70 SE6       30.13S
GOSHEN         CLOUDY    44  34  67 SE9       30.13S
SOUTH BEND     CLOUDY    43  34  70 SE9       30.13S

$$

INZ006>009-017-018-025>027-280300-
NORTHEAST INDIANA

CITY           SKY/WX    TMP DP  RH WIND       PRES   REMARKS
ANGOLA *+      CLEAR     41  37  87 S8        30.15S
FORT WAYNE     CLOUDY    39  35  86 SE8       30.17S
KENDALLVILLE + CLOUDY    42  37  82 S9        30.15S

$$

INZ028-029-035-036-043>045-051>053-280300-
WEST CENTRAL INDIANA

CITY           SKY/WX    TMP DP  RH WIND       PRES   REMARKS
GREENCASTLE +  FAIR      41  37  87 SE7       30.14S
LAFAYETTE      CLOUDY    46  40  79 SE7       30.12R
TERRE HAUTE    PTCLDY    47  41  80 SE7       30.12S

$$

INZ030>032-037>040-046>048-054>057-064-065-280300-
CENTRAL INDIANA

CITY           SKY/WX    TMP DP  RH WIND       PRES   REMARKS
COLUMBUS       MOCLDY    41  41 100 E5        30.17S
GREENWOOD *+   PTCLDY    45  42  89 SE5       30.16S
INDIANAPOLIS   PTCLDY    46  41  82 SE12      30.14S
-EAGLE CREEK   PTCLDY    47  40  76 SE7       30.13S
KOKOMO +       CLOUDY    42  39  89 S9        30.16S
MT COMFORT *+  MOCLDY    43  41  93 S5        30.16S
SHELBYVILLE    PTCLDY    43  38  82 SE6       30.16S

$$

INZ033-034-041-042-049-050-058-059-280300-
EAST CENTRAL INDIANA

CITY           SKY/WX    TMP DP  RH WIND       PRES   REMARKS
MUNCIE         CLEAR     45  40  82 S7        30.15F

$$

INZ060-061-067>069-081>083-085>088-280300-
SOUTHWEST INDIANA

CITY           SKY/WX    TMP DP  RH WIND       PRES   REMARKS
EVANSVILLE     PTCLDY    51  44  77 N3        30.13R
HUNTINGBURG *+ CLEAR     48  43  81 E6        30.12S

$$

INZ062-063-066-070>080-084-089>092-280300-
SOUTH CENTRAL AND SOUTHEAST INDIANA

CITY           SKY/WX    TMP DP  RH WIND       PRES   REMARKS
BLOOMINGTON    PTCLDY    46  41  82 SE5       30.14S
MADISON *+     CLEAR     46  41  81 E6        30.19S
SEYMOUR +      PTCLDY    45  43  93 CALM      30.16S

$$





USA.gov is the U.S. government's official web portal to all federal, state and local government web resources and services.